"Pseudo-MPEC" for P11Cmya

Created 2022 Dec 16 14:22:12 UT using Find_Orb

Click here for an explanation of pseudo-MPECs

 
 Astrometry: 
     P11Cmya* C2022 12 01Z0FHT(3c!AstrometryEBb1t_vuK$iddniHw]a2G-Z!imbHd^1OXF51
     P11Cmya  C2022 12 01kOg$ilm-0avX93sKZ[redacted;+\JRTfclick!rJfG]WPUhereyF51
     P11Cmya  C2022 12 01UxEH+Ud'h#:a(NB3dGe?3@78,9Oi*qD(G3K1n9h.!p6C]!jtXC1JF51
     P11Cmya  C2022 12 01)$y!n]r8e4_R`JFylfor.TDxexplanationyyBsTy_X\c1^WnVJYF51

Station data:
(F51) Pan-STARRS 1, Haleakala  (N20.707234 W156.255910)  US/Hawaii.
   Observers J. Bulger, T. Lowe, A. Schultz, M. Willman. Measurers K.
   Chambers, S. Chastel, T. de Boer, L. Denneau, J. Fairlamb, H. Flewelling,
   M. Huber, C.-C. Lin, E. Magnier, Y. Ramanjooloo, R. Wainscoat, R. Weryk.
   1.8-m Ritchey-Chrétien + CCD.

Orbital elements:  P11Cmya
   Perihelion 2022 Nov 11.29538 +/- 40.4 TT =  7:05:20 (JD 2459894.79538)
Epoch 2022 Dec  2.0 TT = JDT 2459915.5   Earth MOID: 0.3366   Ma: 0.0227
M   5.20469037 +/- 56               (J2000 ecliptic)             AutoNEOCP
n   0.25137817 +/- 0.497            Peri.  289.87230 +/- 120
a   2.48647634 +/- 3.28             Node   147.78871 +/- 34
e   0.4943257 +/- 0.237             Incl.   11.12994 +/- 43
P   3.92                   H 20.41  G  0.15   U 12.3  SR
q 1.25734702 +/- 0.459    Q 3.71560566 +/- 64.6
From 4 observations 2022 Dec. 1 (46.4 min); mean residual 0".03
Residuals in arcseconds: 
221201 F51  .02-  .01+    221201 F51  .08+  .01-    
221201 F51  .01-  .01-    221201 F51  .05-  .01+    

Ephemerides (geocentric):
Date (UTC) HH   RA             Dec           delta  r     elong  mag " sig PA
---- --------  ------------   ------------  ------ ------ -----  --- --------
2022 12 16 14  09 51 36.798   -04 41 27.23  .57993 1.3129 111.5 21.6  70d 177
2022 12 16 15  09 51 40.767   -04 41 21.49  .57985 1.3130 111.5 21.6  70d 177
2022 12 16 16  09 51 44.732   -04 41 15.71  .57977 1.3131 111.6 21.6  70d 177
2022 12 16 17  09 51 48.692   -04 41 09.87  .57969 1.3132 111.6 21.6  70d 177
2022 12 16 18  09 51 52.647   -04 41 03.98  .57961 1.3134 111.6 21.6  70d 177
2022 12 16 19  09 51 56.597   -04 40 58.04  .57953 1.3135 111.6 21.6  70d 177
2022 12 16 20  09 52 00.541   -04 40 52.05  .57946 1.3136 111.7 21.6  70d 177
2022 12 16 21  09 52 04.481   -04 40 46.01  .57938 1.3137 111.7 21.6  70d 177
2022 12 16 22  09 52 08.416   -04 40 39.93  .57930 1.3139 111.7 21.6  70d 177
2022 12 16 23  09 52 12.345   -04 40 33.79  .57922 1.3140 111.8 21.6  70d 177
2022 12 17 00  09 52 16.270   -04 40 27.60  .57914 1.3141 111.8 21.6  70d 177
2022 12 17 01  09 52 20.190   -04 40 21.37  .57906 1.3143 111.8 21.6  70d 177
2022 12 17 02  09 52 24.104   -04 40 15.08  .57898 1.3144 111.8 21.6  70d 177
2022 12 17 03  09 52 28.014   -04 40 08.74  .57890 1.3145 111.9 21.6  70d 177
2022 12 17 04  09 52 31.918   -04 40 02.36  .57882 1.3146 111.9 21.6  70d 177
2022 12 17 05  09 52 35.818   -04 39 55.92  .57875 1.3148 111.9 21.6  70d 177
2022 12 17 06  09 52 39.712   -04 39 49.43  .57867 1.3149 111.9 21.6  70d 177
2022 12 17 07  09 52 43.602   -04 39 42.90  .57859 1.3150 112.0 21.6  70d 177
2022 12 17 08  09 52 47.486   -04 39 36.31  .57851 1.3152 112.0 21.6  70d 177
2022 12 17 09  09 52 51.365   -04 39 29.67  .57843 1.3153 112.0 21.6  70d 177
2022 12 17 10  09 52 55.240   -04 39 22.99  .57835 1.3154 112.0 21.6  70d 177
2022 12 17 11  09 52 59.109   -04 39 16.25  .57827 1.3155 112.1 21.6  70d 177
2022 12 17 12  09 53 02.973   -04 39 09.46  .57819 1.3157 112.1 21.6  70d 177
2022 12 17 13  09 53 06.832   -04 39 02.63  .57812 1.3158 112.1 21.6  70d 177
2022 12 17 14  09 53 10.686   -04 38 55.74  .57804 1.3159 112.2 21.6  70d 177
2022 12 17 15  09 53 14.535   -04 38 48.80  .57796 1.3161 112.2 21.6  70d 177
2022 12 17 16  09 53 18.379   -04 38 41.81  .57788 1.3162 112.2 21.5  70d 177
2022 12 17 17  09 53 22.218   -04 38 34.78  .57780 1.3163 112.2 21.5  70d 177
2022 12 17 18  09 53 26.052   -04 38 27.69  .57772 1.3165 112.3 21.5  70d 177
2022 12 17 19  09 53 29.880   -04 38 20.55  .57765 1.3166 112.3 21.5  71d 177
2022 12 17 20  09 53 33.704   -04 38 13.36  .57757 1.3167 112.3 21.5  71d 177
2022 12 17 21  09 53 37.522   -04 38 06.12  .57749 1.3168 112.3 21.5  71d 177
2022 12 17 22  09 53 41.336   -04 37 58.83  .57741 1.3170 112.4 21.5  71d 177
2022 12 17 23  09 53 45.144   -04 37 51.48  .57733 1.3171 112.4 21.5  71d 177
2022 12 18 00  09 53 48.947   -04 37 44.09  .57725 1.3172 112.4 21.5  71d 177
2022 12 18 01  09 53 52.745   -04 37 36.65  .57718 1.3174 112.5 21.5  71d 177
2022 12 18 02  09 53 56.538   -04 37 29.16  .57710 1.3175 112.5 21.5  71d 177
2022 12 18 03  09 54 00.326   -04 37 21.61  .57702 1.3176 112.5 21.5  71d 177
2022 12 18 04  09 54 04.109   -04 37 14.02  .57694 1.3178 112.5 21.5  71d 177
2022 12 18 05  09 54 07.887   -04 37 06.37  .57686 1.3179 112.6 21.5  71d 177
2022 12 18 06  09 54 11.659   -04 36 58.67  .57679 1.3180 112.6 21.5  71d 177
2022 12 18 07  09 54 15.427   -04 36 50.93  .57671 1.3182 112.6 21.5  71d 177
2022 12 18 08  09 54 19.189   -04 36 43.13  .57663 1.3183 112.6 21.5  71d 177
2022 12 18 09  09 54 22.947   -04 36 35.28  .57655 1.3184 112.7 21.5  71d 177
2022 12 18 10  09 54 26.699   -04 36 27.38  .57647 1.3185 112.7 21.5  71d 177
2022 12 18 11  09 54 30.446   -04 36 19.43  .57640 1.3187 112.7 21.5  71d 177
2022 12 18 12  09 54 34.188   -04 36 11.42  .57632 1.3188 112.8 21.5  71d 177
2022 12 18 13  09 54 37.925   -04 36 03.37  .57624 1.3189 112.8 21.5  71d 177